DW9750 Weather Reports


time (UTC)temp
C
wind
direction
speed
KPH
gust
KPH
rain 1hr
cm
rain 24hr
cm
rain mn
cm
humidity
%
barometer
mb
20260904041510 28 106 6.4 14.5 0.00 0.00 0.00 66 1010.5
20260904040006 28 94 8.0 14.5 0.00 0.00 0.00 65 1010.2
20260904034506 28 103 8.0 20.9 0.00 0.00 0.00 64 1010.1
20260904033003 28 94 3.2 11.3 0.00 0.00 0.00 63 1010.1
20260904031503 28 124 6.4 12.9 0.00 0.00 0.00 63 1010.0
20260904030103 28 126 4.8 11.3 0.00 0.00 0.00 63 1009.9
20260904024502 28 129 8.0 17.7 0.00 0.00 0.00 63 1009.6
20260904023001 29 90 6.4 16.1 0.00 0.00 0.00 63 1009.4
20260904021500 29 83 9.7 19.3 0.00 0.00 0.00 62 1009.0
20260904020059 30 123 6.4 29.0 0.00 0.00 0.00 61 1008.9
20260904014621 30 109 8.0 19.3 0.00 0.00 0.00 58 1008.8
20260904013059 31 75 11.3 25.7 0.00 0.00 0.00 56 1008.5
20260904011607 32 83 4.8 16.1 0.00 0.00 0.00 52 1008.1
20260904010057 32 75 4.8 12.9 0.00 0.00 0.00 49 1007.9
20260904004556 33 132 8.0 17.7 0.00 0.00 0.00 48 1007.7
20260904003055 33 122 6.4 17.7 0.00 0.00 0.00 48 1007.6
20260904001555 33 78 8.0 25.7 0.00 0.00 0.00 48 1007.4
20260904000058 34 97 11.3 24.1 0.00 0.00 0.00 46 1007.0
20260903234553 35 104 4.8 17.7 0.00 0.00 0.00 42 1007.1
20260903233053 36 98 3.2 9.7 0.00 0.00 0.00 40 1007.0
20260903231604 36 78 4.8 12.9 0.00 0.00 0.00 39 1007.1
20260903230051 36 126 6.4 14.5 0.00 0.00 0.00 40 1007.0
20260903224550 36 141 4.8 16.1 0.00 0.00 0.00 40 1006.9
20260903223102 36 58 3.2 12.9 0.00 0.00 0.00 38 1007.0
20260903221549 37 158 4.8 12.9 0.00 0.00 0.00 38 1006.9
20260903214546 36 68 6.4 17.7 0.00 0.00 0.00 38 1007.1
20260903213045 37 83 6.4 17.7 0.00 0.00 0.00 38 1007.2
20260903211643 37 72 6.4 16.1 0.00 0.00 0.00 38 1007.3
20260903210041 35 101 4.8 12.9 0.00 0.00 0.00 40 1007.5
20260903204539 36 73 3.2 17.7 0.00 0.00 0.00 41 1007.6
20260903203038 37 118 6.4 14.5 0.00 0.00 0.00 39 1007.9
20260903201536 37 156 3.2 9.7 0.00 0.00 0.00 38 1008.0
20260903200043 37 229 4.8 9.7 0.00 0.00 0.00 36 1008.3
20260903194543 37 301 6.4 12.9 0.00 0.00 0.00 36 1008.4
20260903193029 37 211 4.8 11.3 0.00 0.00 0.00 37 1008.7
20260903191526 36 249 6.4 16.1 0.00 0.00 0.00 38 1008.9
20260903190024 36 284 3.2 9.7 0.00 0.00 0.00 39 1009.3
20260903184519 35 239 4.8 12.9 0.00 0.00 0.00 41 1009.6
20260903183031 35 207 9.7 17.7 0.00 0.00 0.00 39 1009.8
20260903181512 35 49 3.2 14.5 0.00 0.00 0.00 43 1010.0
20260903180008 33 186 3.2 16.1 0.00 0.00 0.00 44 1010.3
20260903174506 33 241 4.8 19.3 0.00 0.00 0.00 49 1010.5
20260903173002 33 208 6.4 16.1 0.00 0.00 0.00 48 1010.8
20260903171605 33 176 6.4 19.3 0.00 0.00 0.00 51 1011.0
20260903170057 32 166 4.8 17.7 0.00 0.00 0.00 52 1011.2
20260903164557 31 193 6.4 16.1 0.00 0.00 0.00 54 1011.3
20260903163051 31 211 8.0 14.5 0.00 0.00 0.00 58 1011.3
20260903161601 31 278 3.2 14.5 0.00 0.00 0.00 62 1011.2
20260903160045 30 266 3.2 16.1 0.00 0.00 0.00 65 1011.3
20260903154543 30 224 4.8 12.9 0.00 0.00 0.00 70 1011.2
20260903153038 28 267 3.2 12.9 0.00 0.00 0.00 71 1011.3
20260903151541 28 227 3.2 11.3 0.00 0.00 0.00 73 1011.4
20260903150034 27 211 4.8 17.7 0.00 0.00 0.00 75 1011.5
20260903144532 27 176 4.8 17.7 0.00 0.00 0.00 77 1011.6
20260903143038 27 214 4.8 16.1 0.00 0.00 0.00 80 1011.6
20260903141530 26 213 4.8 12.9 0.00 0.00 0.00 82 1011.7
20260903140030 26 205 4.8 11.3 0.00 0.00 0.00 84 1011.8
20260903134530 26 245 3.2 9.7 0.00 0.00 0.00 84 1011.9
20260903133029 25 214 4.8 14.5 0.00 0.00 0.00 84 1011.8
20260903131528 25 213 1.6 9.7 0.00 0.00 0.00 85 1011.7
20260903130027 25 171 1.6 4.8 0.00 0.00 0.00 86 1011.8
20260903124546 25 161 1.6 6.4 0.00 0.00 0.00 86 1011.5
20260903123024 25 132 0.0 3.2 0.00 0.00 0.00 85 1011.4
20260903121538 25 197 0.0 6.4 0.00 0.00 0.00 85 1011.3
20260903120023 25 216 3.2 8.0 0.00 0.00 0.00 85 1011.1
20260903114523 25 225 0.0 9.7 0.00 0.00 0.00 86 1011.2
20260903113022 25 157 1.6 4.8 0.00 0.00 0.00 86 1011.2
20260903111520 25 189 0.0 4.8 0.00 0.00 0.00 87 1011.2
20260903110018 24 177 0.0 6.4 0.00 0.00 0.00 87 1011.1
20260903104524 24 184 0.0 3.2 0.00 0.00 0.00 87 1011.0
20260903103017 24 211 0.0 6.4 0.00 0.00 0.00 86 1010.9
20260903101526 24 189 0.0 4.8 0.00 0.00 0.00 86 1011.0
20260903100023 24 205 1.6 8.0 0.00 0.00 0.00 85 1010.9
20260903094614 24 163 1.6 0.0 0.00 0.00 0.00 85 1011.0
20260903093013 24 119 0.0 0.0 0.00 0.00 0.00 83 1011.0
20260903091513 25 108 0.0 3.2 0.00 0.00 0.00 82 1011.1
20260903090009 25 149 0.0 4.8 0.00 0.00 0.00 82 1011.2
20260903084506 25 76 0.0 0.0 0.00 0.00 0.00 81 1011.1
20260903083006 26 70 0.0 3.2 0.00 0.00 0.00 79 1011.1
20260903081504 26 99 0.0 8.0 0.00 0.00 0.00 78 1011.1
20260903080003 26 102 1.6 6.4 0.00 0.00 0.00 79 1011.1
20260903074501 26 93 3.2 6.4 0.00 0.00 0.00 77 1011.1
20260903073114 26 90 3.2 6.4 0.00 0.00 0.00 76 1011.2
20260903071600 26 111 1.6 4.8 0.00 0.00 0.00 74 1011.1
20260903070103 26 92 1.6 6.4 0.00 0.00 0.00 72 1011.3
20260903064557 27 113 0.0 4.8 0.00 0.00 0.00 68 1011.3
20260903063055 27 73 1.6 8.0 0.00 0.00 0.00 66 1011.3
20260903061552 27 100 6.4 12.9 0.00 0.00 0.00 66 1011.3
20260903060047 27 68 4.8 8.0 0.00 0.00 0.00 66 1011.3
20260903054545 28 99 3.2 6.4 0.00 0.00 0.00 67 1011.2
20260903053046 27 88 1.6 6.4 0.00 0.00 0.00 67 1011.1
20260903051541 27 97 1.6 4.8 0.00 0.00 0.00 64 1010.9
20260903050039 27 67 3.2 6.4 0.00 0.00 0.00 63 1010.8
20260903044538 27 90 1.6 8.0 0.00 0.00 0.00 60 1010.9
20260903043046 26 70 1.6 4.8 0.00 0.00 0.00 61 1010.7